Theta_e
301 302 300 300 300 299 298 298 298 299 302 300 298 302 303 305 300 299 306 307 306 307 310 311 312 313 313 314 315 317 320 321 322 321 322 322 322 323 324 325 326 325 326 326 327 328 331 334 335 338 339 339 341 342 344 344 344 347 349 351 351 351 351 351 353 354 354 355 354 354 354 353 351 349 348 348 349 348 346 346 348 345 345 345 347 350 354
298 300 300 300 299 298 299 298 299 299 299 298 301 302 304 310 307 309 309 308 308 310 311 312 313 315 315 315 316 317 318 318 318 319 319 320 321 321 321 323 324 324 325 328 327 328 329 331 334 336 338 339 340 341 342 344 344 347 350 350 350 350 350 350 352 354 353 352 350 350 350 350 349 349 349 349 350 350 350 349 347 347 346 346 345 347 349
296 298 300 300 299 298 296 297 298 298 298 297 298 301 312 313 310 310 309 307 307 314 315 314 315 315 316 316 315 315 316 317 318 317 318 319 319 320 320 321 322 324 324 325 328 327 327 329 333 337 337 337 338 340 342 343 344 345 347 346 347 348 348 349 351 353 354 352 351 350 351 351 350 351 350 351 349 349 351 350 348 348 349 346 347 344 347
293 297 298 298 298 298 297 296 297 298 298 296 298 299 311 310 307 308 307 304 305 311 314 314 314 314 314 313 314 316 316 317 318 317 317 318 318 318 319 320 321 322 322 323 324 324 325 325 326 330 333 335 337 337 339 341 344 344 343 343 343 343 344 345 346 347 350 352 350 350 351 350 350 351 352 350 348 348 350 352 349 349 347 347 348 349 347
292 296 298 297 297 296 293 293 295 298 300 300 298 300 310 313 311 306 303 303 309 311 314 311 312 314 313 312 312 313 315 316 316 316 316 317 318 318 318 318 319 319 321 322 324 324 324 324 324 326 328 329 331 336 336 336 337 337 338 340 340 341 343 344 344 345 347 349 350 351 352 354 355 356 354 353 353 353 353 354 353 349 346 346 348 352 354
292 296 297 298 294 286 286 301 301 300 297 298 296 299 310 313 313 309 311 310 312 312 312 311 311 312 312 313 315 316 314 313 314 314 315 316 317 317 317 317 317 317 318 320 322 324 323 325 327 327 328 328 328 334 336 335 334 334 334 335 337 340 341 341 342 344 345 346 347 348 349 350 353 353 353 353 356 358 357 354 351 351 350 347 348 349 352
290 295 296 291 285 287 302 303 304 305 303 301 303 306 309 312 313 312 310 311 311 313 313 314 314 313 314 314 314 315 315 315 314 313 314 315 317 317 317 317 317 317 318 320 321 321 322 324 326 327 327 327 327 327 331 331 332 332 333 333 334 335 339 341 342 343 343 342 344 346 348 347 349 350 351 350 353 355 356 355 351 349 352 352 352 354 354
294 290 291 282 287 299 302 302 303 307 308 308 308 307 311 313 312 312 310 311 312 313 313 313 314 314 314 315 316 316 316 316 313 313 312 313 315 315 316 316 317 317 318 320 322 321 323 321 321 326 326 328 327 326 327 330 329 330 330 330 331 333 332 335 339 343 343 341 342 345 346 347 348 348 349 349 350 353 355 356 356 354 355 354 353 353 353
288 290 289 290 299 298 300 300 304 302 303 304 303 298 304 312 313 312 311 311 313 314 313 315 314 314 313 310 309 314 313 314 315 314 313 314 314 316 316 317 317 320 319 320 323 323 320 320 323 325 327 328 328 327 326 328 329 329 329 328 329 330 330 331 335 338 343 344 342 342 345 345 345 348 348 348 349 353 353 354 355 354 354 356 355 356 355
294 289 287 290 289 287 294 304 308 308 307 310 310 305 301 313 314 315 312 310 311 313 313 313 312 313 309 305 306 311 312 313 313 314 314 314 314 315 315 315 316 320 320 320 321 320 319 320 323 325 326 326 326 326 327 327 328 328 328 328 329 330 329 330 332 336 341 343 342 342 343 344 344 344 348 348 348 349 348 349 350 353 355 355 355 356 355
294 291 286 285 285 291 301 302 309 308 306 309 309 302 296 307 313 314 313 311 311 312 312 312 312 309 304 303 306 309 311 312 313 312 312 313 314 314 313 313 315 319 321 322 321 321 320 320 321 323 323 324 325 325 327 327 328 327 327 328 329 329 329 330 331 333 336 337 336 342 343 346 346 345 344 344 342 340 341 342 345 349 351 350 352 354 357
293 292 287 285 293 293 302 303 305 306 307 307 301 289 292 307 312 313 313 311 312 313 314 312 310 307 303 303 307 311 312 313 314 313 312 313 313 313 314 316 318 320 321 318 318 318 320 320 322 323 324 324 327 326 325 328 328 328 329 330 331 331 331 330 331 331 332 335 336 338 343 344 345 345 345 343 341 341 339 336 339 345 349 350 349 350 351
292 295 290 293 296 303 307 305 305 305 309 303 290 284 294 309 311 313 313 311 312 313 312 311 305 310 309 309 311 313 313 312 312 313 314 314 314 313 315 319 323 316 316 317 316 317 318 320 321 323 324 324 324 325 325 325 326 329 330 331 332 331 331 331 330 329 330 331 333 333 344 345 347 348 346 344 342 339 337 335 335 340 343 344 346 347 350
289 290 288 290 296 304 304 304 305 305 303 287 288 298 310 309 310 311 311 309 311 311 310 308 307 308 311 313 312 311 311 310 311 313 314 314 314 315 321 322 320 315 315 315 315 316 317 319 321 321 322 324 324 324 323 323 323 327 331 330 331 330 330 329 330 329 330 331 334 333 335 338 347 345 346 347 346 341 337 335 337 342 344 345 345 346 348
292 293 290 286 282 299 311 302 301 306 297 298 306 307 309 309 307 308 308 309 309 310 308 310 309 309 310 310 310 310 310 311 312 312 312 312 312 313 313 313 316 316 313 313 314 315 318 319 320 320 321 321 322 321 321 321 324 326 327 330 331 331 330 330 330 330 330 329 330 330 334 340 334 334 337 341 345 346 344 344 344 343 344 344 343 344 346
288 287 286 285 297 303 310 304 297 306 307 309 312 307 303 308 308 307 308 309 309 309 308 307 307 307 308 309 309 309 310 311 311 312 312 312 312 312 313 314 314 317 312 314 314 316 318 319 319 320 319 319 321 321 321 322 325 326 326 326 328 331 331 329 329 329 328 329 328 331 335 331 331 332 334 338 342 344 344 344 343 343 343 344 342 339 338
296 291 294 299 306 306 309 309 308 309 311 312 312 309 307 306 307 310 308 308 308 308 307 306 306 306 308 308 309 308 309 309 310 310 310 311 311 312 312 312 316 314 312 312 314 315 316 317 318 319 319 318 320 320 320 324 326 326 326 327 327 329 328 328 328 326 325 325 327 332 328 329 331 335 332 333 333 336 345 345 344 341 338 337 337 337 337
308 308 307 307 307 307 308 310 310 309 310 312 311 310 307 309 309 310 308 308 308 308 307 305 305 307 307 307 307 308 309 309 310 311 310 310 311 311 311 311 313 313 313 313 313 314 314 315 316 318 317 318 317 319 321 324 321 323 325 325 326 326 327 327 325 326 324 325 326 328 329 330 331 328 329 330 332 335 336 335 336 336 336 336 335 334 334
296 291 306 308 307 307 308 308 309 309 310 309 310 309 309 309 311 311 312 310 309 309 309 307 306 306 307 307 308 308 308 308 308 308 309 310 310 310 310 312 314 313 314 313 313 313 314 315 315 316 316 317 317 319 320 321 321 323 323 326 326 325 323 325 325 325 323 324 327 326 325 326 327 329 330 330 330 331 329 327 328 332 333 334 333 332 332
297 300 305 308 308 308 308 307 306 305 306 309 311 311 310 310 311 312 311 311 309 309 307 307 306 307 308 307 307 308 308 307 308 309 309 309 310 310 311 313 313 312 312 311 313 314 314 314 315 316 317 317 317 318 319 321 321 322 324 325 324 322 322 323 326 324 323 329 326 323 324 325 325 325 327 329 328 327 326 326 326 327 328 329 328 329 330
300 307 305 307 307 309 307 310 308 307 307 308 309 310 310 309 308 308 309 310 308 309 307 309 308 307 307 308 307 307 307 308 309 309 309 309 308 309 310 312 312 311 313 313 313 314 313 314 315 316 316 318 319 319 319 319 321 322 323 325 325 323 322 323 325 327 328 323 324 323 322 323 323 324 326 327 325 325 327 329 330 329 326 325 328 328 330
296 297 301 306 300 297 305 309 310 308 310 310 309 309 308 308 308 307 306 307 310 310 311 309 308 306 307 307 307 307 307 306 307 308 308 308 308 310 311 311 313 313 314 314 313 313 312 313 314 315 315 317 320 322 322 322 321 320 323 323 322 321 322 322 324 324 325 323 323 324 322 321 322 323 329 320 320 324 324 329 323 315 313 323 327 327 326
295 303 308 309 308 308 308 308 311 310 310 310 308 308 307 308 308 308 307 305 306 308 309 309 308 307 308 307 307 307 306 308 309 308 307 308 308 309 309 310 311 313 313 314 313 313 312 314 313 314 314 316 320 320 322 322 322 322 322 322 322 322 324 324 323 326 324 322 322 321 321 321 322 322 322 323 312 311 314 317 312 305 302 302 303 307 319
306 309 309 312 309 306 307 309 311 309 310 309 308 309 309 308 308 308 308 306 305 306 307 308 309 309 307 307 307 305 307 307 308 308 307 309 308 310 309 310 312 312 313 314 313 312 312 313 312 313 314 317 317 318 319 320 321 322 322 322 321 321 322 323 324 324 322 322 323 322 321 321 321 321 320 320 320 313 311 312 311 307 305 304 303 303 305
303 309 310 311 310 311 311 311 310 313 312 311 308 307 308 307 308 308 307 307 308 307 306 307 307 308 307 308 307 307 305 305 308 309 312 312 309 310 311 311 310 310 310 311 311 311 313 313 312 313 314 316 316 316 317 317 318 319 321 321 320 321 322 323 323 324 322 322 322 322 323 322 321 321 319 319 317 318 318 312 311 308 306 305 305 303 302
311 310 310 311 312 310 312 310 313 312 311 312 311 310 313 316 310 309 308 308 308 307 307 307 306 306 306 306 305 306 306 307 312 311 306 307 309 310 309 310 311 311 310 309 310 311 311 312 311 312 313 315 314 314 315 315 315 315 318 319 319 320 320 320 320 319 320 320 320 319 319 319 320 320 319 319 317 317 316 317 318 313 310 307 305 304 301
311 312 311 309 307 308 310 309 309 311 309 313 313 311 310 309 314 310 310 308 308 310 308 307 307 307 307 307 309 306 305 307 308 307 307 308 309 309 309 310 311 311 311 310 310 313 313 313 312 312 312 313 313 313 312 312 313 313 315 316 317 321 322 322 321 320 320 320 319 318 318 319 317 319 317 318 318 318 317 316 317 317 319 322 317 307 315
311 312 311 305 304 307 310 313 312 313 312 310 311 311 310 310 309 308 307 307 307 309 309 308 306 305 306 305 305 305 305 306 304 308 309 308 308 309 310 310 309 309 310 311 310 310 313 310 310 311 312 312 313 313 312 311 311 312 313 313 314 314 316 317 316 316 317 318 317 316 316 316 317 317 318 318 317 317 316 318 319 318 320 321 322 318 314
308 309 311 311 310 310 312 313 314 312 311 312 312 311 310 307 306 306 306 306 306 306 304 306 308 307 306 305 305 305 305 305 308 308 308 307 310 309 309 309 308 310 309 311 308 308 308 308 308 308 310 312 312 312 311 310 309 310 310 311 311 312 313 313 312 312 313 314 315 316 318 316 315 315 317 317 319 318 318 317 318 319 318 319 321 323 321
308 309 309 308 309 310 309 308 308 310 310 311 309 309 310 307 305 305 306 306 306 306 305 306 306 306 306 305 306 306 307 307 307 308 308 308 307 308 308 308 307 308 307 307 306 306 306 307 307 307 308 309 311 311 310 309 309 309 310 311 311 311 311 312 311 311 311 311 313 316 315 316 315 315 316 316 317 318 318 317 318 319 318 318 321 318 319
308 309 308 307 307 307 306 306 307 308 309 309 309 308 308 307 306 306 305 306 306 307 306 306 306 306 306 306 306 306 307 308 308 308 308 307 308 308 308 307 305 304 305 305 305 306 306 307 307 307 308 309 309 309 308 307 308 308 309 309 309 312 313 312 313 310 309 311 312 312 313 314 314 315 316 317 317 316 316 316 316 316 317 317 317 317 319
307 307 307 306 304 305 306 306 306 306 307 309 308 306 307 306 305 305 306 307 307 307 306 306 305 306 306 307 308 308 307 307 307 308 307 308 308 307 308 307 306 307 305 306 307 308 307 306 306 306 307 307 308 308 307 306 307 307 307 309 308 308 310 312 310 310 310 312 312 312 312 312 312 314 315 316 315 315 314 314 314 315 316 316 316 316 318
304 303 303 304 304 304 304 306 306 305 305 305 307 307 308 309 310 310 309 309 308 308 307 306 306 306 306 306 307 306 307 307 308 308 307 306 307 307 308 307 306 306 306 307 307 307 307 307 306 307 306 307 307 307 306 305 306 306 307 307 307 308 309 310 310 309 310 311 311 310 311 311 312 311 312 314 315 315 313 314 314 315 315 315 314 315 315
306 304 304 305 304 301 301 304 306 306 307 309 310 310 309 310 308 308 308 310 310 309 308 307 307 307 307 307 306 306 306 305 304 305 306 306 306 307 307 308 306 306 306 307 307 307 306 307 307 306 305 306 306 306 305 306 305 306 307 306 306 306 307 307 308 309 309 309 309 310 309 309 309 311 312 313 313 313 314 313 314 314 314 314 314 315 312
310 310 309 308 308 307 307 306 306 307 307 306 308 310 309 310 310 311 311 308 309 310 311 309 308 307 307 306 306 306 305 304 305 306 306 306 306 305 306 306 306 305 306 306 306 305 305 306 306 305 305 305 305 305 305 306 306 306 306 306 305 306 305 306 306 306 306 306 307 307 307 308 309 311 312 312 312 312 312 312 312 313 313 314 315 316 316
309 308 308 307 308 308 308 308 308 308 308 308 308 309 308 309 308 308 309 308 308 309 308 311 309 308 306 305 304 305 305 306 307 305 305 305 304 304 304 304 303 303 303 304 306 306 305 306 309 309 307 305 304 304 305 306 305 305 305 304 304 304 304 305 304 305 306 305 306 307 307 309 309 309 310 309 309 310 311 311 312 313 313 313 313 314 314
307 306 307 307 308 308 308 308 308 308 308 308 308 308 308 308 309 310 310 309 309 308 307 308 308 306 306 306 306 306 306 306 306 305 304 305 305 304 303 303 301 301 301 301 302 305 305 305 308 307 305 304 303 303 307 308 307 305 304 301 301 302 302 302 303 303 304 305 306 306 308 308 307 306 308 307 308 309 310 310 311 311 311 312 312 312 312
305 305 305 306 306 306 307 308 309 308 307 307 308 310 310 310 310 308 307 307 308 309 309 309 308 307 307 307 306 306 306 305 304 304 304 303 303 302 302 301 302 302 301 300 303 304 304 306 306 305 303 302 301 301 304 307 307 303 301 300 300 300 301 301 302 303 304 304 306 305 305 305 305 305 306 306 307 308 309 309 310 310 310 310 310 311 311
303 304 305 305 306 306 306 307 308 308 307 306 307 307 309 310 310 309 308 307 308 309 308 308 308 307 306 305 304 305 305 304 304 304 303 303 303 301 301 302 303 302 302 303 303 303 305 304 304 302 301 300 301 301 303 306 306 301 299 299 299 299 300 301 301 302 304 304 304 304 304 304 304 304 304 305 306 307 308 308 308 309 308 308 308 308 309
302 303 303 304 303 304 304 304 305 306 308 308 307 306 308 309 309 309 308 307 308 311 310 308 307 306 305 305 304 304 305 305 305 304 303 303 303 302 302 303 304 304 305 306 304 303 304 304 304 301 301 300 301 300 302 303 303 301 298 297 298 300 300 302 302 303 303 303 303 305 303 303 303 303 304 304 304 305 306 306 306 306 306 307 307 307 308
302 302 303 302 302 303 303 303 304 305 306 306 306 308 309 309 309 308 308 308 308 309 308 309 308 306 305 305 304 305 305 305 304 304 304 302 300 299 299 299 302 303 303 303 304 303 304 305 303 300 300 300 300 303 300 302 301 297 298 299 300 300 300 301 301 302 302 301 302 301 301 302 302 302 302 302 303 304 304 304 304 305 304 305 305 306 306
300 301 301 301 301 302 303 303 303 303 304 306 307 308 308 309 309 308 309 309 309 309 308 309 310 308 306 306 306 306 304 304 305 303 303 301 300 298 298 299 302 302 306 306 303 302 302 303 303 304 299 299 300 302 302 301 297 296 297 299 300 301 300 300 300 300 301 301 300 300 301 301 300 300 301 302 302 302 302 303 303 303 303 304 304 304 304
300 299 300 300 300 303 303 303 302 302 303 305 306 307 307 309 309 309 309 308 308 307 306 306 309 310 309 306 305 303 303 304 304 303 302 302 303 302 300 302 302 303 306 306 302 300 300 299 299 299 302 299 300 302 302 298 297 298 298 299 299 299 299 299 299 299 299 298 298 298 298 299 299 300 300 300 300 301 301 301 301 302 303 302 302 302 303
301 301 300 300 300 301 301 301 302 302 301 302 305 306 308 308 308 308 308 308 307 308 306 307 307 306 307 306 304 303 302 302 302 302 300 300 302 304 304 303 302 304 305 304 303 301 300 300 298 300 302 301 301 301 300 297 298 298 298 298 298 298 298 298 298 298 298 298 298 297 297 299 299 298 299 299 299 299 301 301 301 301 302 301 301 301 301
300 300 301 300 300 301 300 299 300 300 301 303 302 303 305 306 308 308 308 307 307 307 308 306 306 306 307 306 304 304 303 303 303 301 299 300 299 298 303 307 305 303 304 303 303 300 299 299 302 302 300 301 300 300 297 296 297 297 297 297 297 297 297 297 297 297 297 297 297 297 297 297 297 298 298 299 300 300 300 300 300 301 301 300 300 300 300
300 300 301 301 300 300 300 301 302 303 303 303 302 302 302 303 306 307 306 307 307 307 307 306 306 307 308 307 306 306 305 304 304 304 303 302 300 300 304 306 305 306 304 303 302 299 299 303 302 301 300 300 299 299 296 297 298 296 296 296 296 297 296 297 296 296 296 296 296 296 297 297 297 297 297 298 298 299 299 300 300 299 299 299 299 300 300
300 300 301 301 301 302 302 302 303 302 301 301 301 301 303 303 305 306 307 307 306 305 307 308 307 308 308 308 306 303 301 301 302 303 304 304 306 305 307 307 307 306 304 302 300 300 300 301 302 300 299 299 299 296 295 295 295 295 294 295 296 296 296 296 296 295 295 295 296 297 297 297 296 296 296 297 297 297 298 298 298 298 298 298 298 298 298
300 300 300 300 301 302 302 302 301 299 300 300 301 301 302 303 306 306 305 306 305 305 307 307 307 308 308 308 307 306 303 301 299 300 303 303 303 304 303 301 304 305 304 303 304 304 304 304 302 301 299 299 299 295 295 294 295 294 293 294 294 294 295 295 294 294 295 295 295 295 295 294 295 295 296 296 296 296 297 297 297 296 296 296 296 296 296
301 301 301 302 301 301 301 301 300 301 300 302 303 303 304 304 305 304 305 305 304 303 304 307 307 307 308 308 307 305 306 307 305 300 303 305 304 303 303 306 307 305 304 301 300 300 304 303 302 301 300 299 295 294 294 295 296 296 295 294 294 294 295 294 295 295 295 295 295 294 294 294 294 294 294 294 295 295 296 296 296 295 294 295 295 295 295
303 302 301 301 300 299 299 300 300 300 302 302 303 304 304 304 303 303 305 304 304 305 305 306 306 306 305 305 305 306 306 307 306 305 305 305 305 303 304 304 305 305 305 301 301 300 303 304 303 302 301 298 296 297 296 296 296 296 297 295 294 293 295 295 296 296 296 295 294 294 294 294 294 294 294 294 294 295 294 295 295 294 294 294 294 294 294
303 302 301 302 302 302 303 302 301 302 302 303 303 304 304 304 304 305 304 304 304 304 303 304 305 305 304 303 304 305 305 305 306 306 306 304 303 305 305 304 303 305 305 303 302 299 300 300 300 301 299 299 297 297 297 297 297 298 298 296 295 294 294 295 295 295 295 295 295 294 294 293 293 293 293 293 294 294 293 293 293 293 293 293 292 293 293
303 303 303 303 302 302 302 302 303 303 304 304 304 303 304 304 303 303 303 305 303 304 304 303 302 303 305 303 304 303 304 304 304 304 305 307 304 302 304 304 302 302 300 300 299 300 300 301 301 301 300 298 297 297 299 299 299 297 297 297 297 295 295 294 295 295 294 295 294 293 293 293 293 293 293 293 293 293 293 293 293 293 293 292 292 292 292
Wind_Speed
3 8 6 4 6 8 10 13 13 7 1 7 3 1 5 4 7 10 10 8 14 11 12 13 12 11 11 11 9 10 13 12 10 10 13 14 13 11 9 8 7 6 7 8 8 7 8 8 9 7 7 8 8 8 8 9 9 7 5 5 10 11 10 8 6 5 4 4 4 3 4 5 6 5 5 5 4 3 4 7 6 4 6 8 10 9 9
9 8 8 5 8 8 4 10 6 8 10 7 1 1 7 11 7 14 15 12 11 10 13 13 13 10 11 11 9 10 12 12 11 13 12 12 12 12 11 10 9 8 7 7 9 9 8 9 7 8 6 6 7 6 7 8 7 7 6 6 8 9 10 8 6 4 4 4 2 2 3 5 4 3 4 4 4 3 1 2 3 4 7 8 4 10 9
7 12 4 3 5 5 6 5 6 7 8 5 6 5 15 16 15 13 15 13 10 5 8 9 7 10 11 10 10 11 9 10 12 12 12 11 11 11 10 9 10 9 9 8 7 8 8 6 6 4 5 7 8 8 7 8 8 7 7 6 8 10 12 9 7 4 4 4 3 3 3 2 2 1 0 3 5 5 3 3 2 0 3 6 7 5 11
3 5 6 3 2 8 4 3 7 2 1 4 2 2 9 12 10 14 14 12 10 7 10 11 11 11 12 11 8 6 8 12 12 12 12 11 11 10 9 9 8 8 9 9 8 9 10 7 5 4 3 3 5 7 8 9 8 6 6 6 8 9 10 10 5 4 3 3 5 4 3 2 2 3 1 3 4 3 6 7 6 6 4 4 4 4 6
2 5 10 9 4 2 2 4 6 5 1 1 5 4 9 18 18 14 10 6 7 9 10 13 8 11 13 12 12 12 12 11 12 11 11 10 10 9 9 8 7 7 7 7 7 8 8 8 7 7 7 8 9 9 10 10 8 8 7 7 7 9 8 9 7 6 4 4 5 5 5 3 2 3 2 0 2 5 5 1 3 2 5 7 6 3 1
2 6 7 10 2 2 3 2 5 4 5 3 4 3 16 12 9 7 10 13 12 11 9 11 11 11 10 9 8 9 8 9 11 11 10 10 10 9 9 7 6 4 5 5 6 6 6 7 8 8 7 9 8 8 11 10 10 8 7 8 7 8 8 8 5 3 4 5 6 5 4 4 4 3 3 2 2 0 2 3 2 3 4 6 7 5 3
2 6 7 5 3 3 2 6 4 10 5 2 8 11 8 13 16 16 13 12 11 8 7 6 10 12 11 11 11 9 9 10 11 11 10 9 10 10 8 6 5 4 4 4 5 7 8 6 5 7 9 9 9 8 7 11 10 8 8 9 9 7 6 3 3 2 3 4 5 5 4 4 4 4 3 4 4 3 2 3 4 5 2 1 2 2 2
2 3 1 1 2 4 6 5 5 7 14 12 18 13 12 11 15 16 16 12 9 7 10 10 10 11 10 7 6 7 6 7 10 10 10 10 10 10 8 7 4 4 4 4 5 7 5 6 5 5 7 8 9 9 8 10 10 9 9 9 8 6 4 3 1 1 2 3 3 2 3 3 3 4 4 3 4 4 4 4 4 4 4 3 4 4 4
2 3 2 3 1 3 3 3 2 3 3 4 9 9 5 10 8 12 13 12 11 11 11 10 10 10 9 7 4 4 9 6 9 13 11 10 8 9 8 7 5 3 4 4 5 5 7 8 9 7 7 7 8 8 8 8 9 9 8 8 8 6 5 4 4 4 2 3 3 3 3 4 5 5 4 4 4 4 4 4 5 5 4 3 2 2 3
3 1 1 0 1 2 2 1 3 1 7 12 9 10 5 5 8 8 12 13 12 12 11 11 11 10 9 7 4 4 8 9 11 11 11 10 9 9 8 6 5 3 4 5 6 8 8 8 8 8 9 8 6 6 7 7 8 7 7 7 6 6 7 7 6 4 4 3 3 3 4 5 5 6 6 5 6 7 7 7 8 7 6 5 4 4 4
2 1 2 1 1 2 1 4 2 3 6 9 10 7 2 1 8 8 11 11 13 14 13 12 11 8 8 6 6 4 7 8 11 10 10 9 9 10 8 5 4 5 5 6 6 8 9 9 8 8 8 7 7 6 6 6 6 6 6 5 5 6 6 7 6 6 4 4 4 2 2 2 2 3 4 3 3 4 6 7 8 8 7 6 6 5 5
3 2 2 3 0 0 1 5 5 7 6 6 5 5 5 5 9 8 6 10 14 11 9 10 7 6 8 7 6 6 6 9 10 11 9 8 8 8 7 6 5 6 7 8 9 10 10 8 8 8 6 6 5 5 6 4 5 4 4 4 4 4 6 5 5 7 5 4 5 2 4 2 1 1 1 2 4 5 6 5 7 7 7 6 7 7 7
4 4 3 0 1 1 2 5 5 5 4 4 5 4 4 8 8 10 9 8 13 14 13 7 5 2 4 5 9 8 8 11 10 9 8 8 8 7 7 9 8 7 8 8 8 8 7 7 7 6 5 5 5 5 5 5 6 3 3 3 3 3 5 5 6 6 6 5 5 5 0 3 3 3 3 3 3 3 4 6 6 6 6 6 7 8 8
4 2 4 1 0 0 3 7 7 3 4 3 2 3 2 4 4 8 13 9 4 7 8 8 7 7 9 9 8 11 12 9 9 9 9 9 9 7 8 10 7 7 7 7 7 7 7 8 7 6 6 5 5 5 5 6 6 6 3 2 2 3 3 5 6 7 7 6 5 4 4 3 0 2 3 5 5 6 6 6 6 6 5 5 5 6 7
2 2 1 3 1 2 2 7 5 4 4 2 2 3 5 11 14 15 11 10 10 12 10 9 9 8 7 9 9 9 10 11 11 10 9 9 8 8 8 10 10 8 6 6 6 5 5 6 5 6 6 6 5 5 4 6 6 5 6 4 1 2 2 3 4 6 6 7 6 6 4 3 3 4 4 3 4 4 5 4 4 5 5 5 6 6 7
2 2 2 1 2 3 4 4 3 0 3 3 1 4 10 10 10 10 10 7 8 8 11 12 11 10 10 9 9 9 10 10 9 9 9 9 8 8 9 10 7 7 7 7 6 5 4 4 4 4 4 4 4 5 4 5 4 4 5 5 4 1 2 1 2 4 6 7 7 6 3 5 5 5 5 4 3 3 4 3 3 3 3 3 4 5 6
2 0 2 5 1 7 7 9 6 5 5 4 4 6 7 9 8 7 10 10 10 11 11 10 8 8 7 8 8 9 10 10 9 9 9 8 7 7 8 7 5 5 5 5 5 6 6 7 7 6 5 4 4 4 5 5 5 5 5 5 6 4 0 1 1 3 5 6 7 3 5 6 5 5 5 5 5 5 4 2 3 4 4 4 3 4 4
1 2 1 4 4 7 9 7 7 6 5 5 5 6 7 6 7 7 9 8 9 9 8 9 6 7 8 8 8 10 9 9 8 8 7 6 5 7 6 5 4 3 3 3 4 5 6 6 6 6 7 7 6 5 5 4 6 5 5 5 5 6 5 0 2 3 4 6 7 5 6 6 5 6 6 6 6 5 6 6 6 6 5 5 5 5 5
2 1 1 2 4 8 7 8 6 6 5 6 7 10 8 8 7 8 8 9 8 7 8 8 7 8 7 11 9 8 8 9 7 7 6 6 7 6 4 3 1 1 1 2 3 4 3 4 4 5 6 6 6 6 6 6 4 4 4 4 5 4 6 3 1 2 4 6 3 6 6 7 7 7 6 6 6 6 6 6 6 6 6 6 7 6 7
2 3 2 4 6 3 6 9 7 6 7 7 8 7 8 9 9 8 8 8 8 7 7 5 7 8 8 9 7 7 8 7 6 5 6 6 5 4 1 1 1 2 1 3 3 2 3 4 5 5 6 6 5 6 7 6 4 3 4 4 4 4 6 6 0 1 3 5 6 5 6 7 7 8 7 6 6 6 6 6 6 6 6 6 7 7 7
6 3 10 8 12 6 3 4 7 9 8 8 8 9 9 10 8 6 6 6 4 5 6 4 5 8 7 7 7 8 6 5 5 5 6 5 5 2 0 0 1 3 3 4 4 4 5 4 4 5 6 7 7 7 6 6 4 3 3 3 4 5 6 4 2 1 1 3 4 5 5 6 6 6 7 7 7 6 5 5 6 6 7 6 7 7 6
1 1 0 5 2 2 10 5 3 6 7 10 10 8 9 7 7 6 6 5 5 7 6 6 7 8 7 7 6 6 5 4 4 5 5 4 4 2 2 3 2 2 2 4 4 4 4 4 5 5 6 6 6 8 8 8 5 4 3 2 3 4 6 4 4 4 3 4 4 3 3 4 5 6 8 11 8 6 5 9 13 13 6 5 7 7 7
4 1 2 3 1 4 4 5 1 10 7 9 9 9 8 8 8 7 7 6 4 6 5 5 4 4 6 7 6 5 4 4 5 7 5 4 3 4 3 1 0 3 4 5 4 4 4 4 4 5 6 6 6 8 7 8 10 8 7 5 5 4 5 4 3 3 4 4 3 2 2 3 4 5 6 7 9 10 8 9 10 13 14 14 14 13 8
0 0 1 2 0 0 3 5 4 5 7 9 9 7 8 9 8 6 6 7 5 5 7 6 6 5 5 6 7 7 5 5 5 4 4 5 4 1 1 1 3 5 4 4 3 4 4 4 4 4 6 7 8 8 7 9 9 8 7 6 5 5 5 4 5 4 4 3 3 4 5 3 4 5 5 6 7 6 7 9 10 12 14 17 17 16 15
2 2 2 1 0 4 3 4 5 2 4 6 6 7 6 8 8 6 5 7 7 7 5 5 5 3 3 3 6 6 6 5 4 5 5 3 2 1 1 5 5 4 4 3 4 3 3 4 4 4 6 7 8 9 9 9 9 8 7 6 5 4 3 3 4 4 3 3 4 5 5 6 6 5 6 6 7 9 7 5 7 11 14 15 17 17 16
2 2 3 3 1 3 3 3 3 4 6 2 5 6 6 7 9 6 6 6 6 8 5 5 6 5 8 6 5 5 5 4 6 5 3 4 1 2 3 5 4 4 3 3 3 3 4 3 3 4 6 8 8 8 7 8 8 8 7 6 5 4 3 3 4 4 4 4 4 5 5 4 5 5 6 6 7 8 10 11 9 6 7 12 15 18 13
3 3 3 2 2 3 1 1 2 2 5 6 2 4 8 6 9 8 6 5 4 1 6 7 7 6 6 5 5 5 2 3 4 3 4 3 3 4 3 4 4 4 4 4 4 5 6 5 4 4 4 6 6 7 8 8 8 8 8 8 7 9 12 8 4 5 4 4 3 3 3 3 4 5 6 7 7 8 8 9 10 10 9 8 10 5 7
2 2 1 2 3 1 1 1 1 0 2 3 4 1 4 5 7 8 7 5 5 4 4 7 8 7 7 5 5 4 1 0 1 2 4 4 3 3 4 4 4 3 4 4 5 4 4 3 4 4 5 5 5 6 7 7 8 7 7 7 7 6 5 9 9 8 7 6 5 6 5 3 3 5 5 6 7 8 7 8 8 9 9 8 7 11 17
9 9 7 4 4 4 5 2 0 1 3 3 4 3 5 5 5 6 6 6 7 7 6 6 6 8 8 6 5 4 2 2 3 4 4 4 3 4 4 4 3 4 4 4 4 3 3 3 3 3 4 4 4 4 4 5 6 6 6 6 5 5 5 6 6 6 6 7 6 7 5 4 4 5 6 6 7 7 6 7 8 9 9 9 8 7 8
0 1 2 3 9 10 8 8 4 4 3 3 7 5 3 7 5 5 5 5 5 7 5 5 5 5 7 6 5 4 1 1 1 3 3 3 3 4 4 4 4 4 4 3 3 3 3 2 3 3 3 3 3 3 3 3 4 5 6 6 4 4 4 5 5 5 5 6 7 8 7 6 5 6 6 6 6 6 6 7 8 9 8 7 8 8 7
2 1 3 6 6 6 9 9 9 8 5 6 5 6 6 6 7 6 5 4 4 5 7 8 7 7 6 7 6 4 3 2 4 3 3 3 2 3 4 4 3 2 2 2 2 2 2 2 3 4 3 3 3 3 3 3 3 5 5 5 5 8 12 13 7 6 5 6 6 6 6 6 6 6 7 6 6 6 6 5 7 8 8 8 7 6 6
2 3 5 5 3 1 0 1 4 7 8 8 7 8 7 9 10 7 6 6 6 7 8 8 7 8 7 6 5 5 3 4 3 3 3 1 2 4 4 4 3 4 3 2 2 1 1 3 4 4 3 3 3 4 3 3 3 4 4 5 6 5 6 10 5 6 6 7 6 6 5 6 6 6 6 6 5 5 5 6 7 7 8 8 7 6 6
4 3 3 3 3 1 1 0 1 2 1 3 6 10 9 2 2 1 3 3 5 5 6 7 7 8 8 7 6 5 4 3 3 2 2 3 3 4 4 4 3 3 3 3 2 1 3 4 4 3 3 3 4 4 3 3 3 3 4 5 5 6 7 6 6 5 5 6 5 5 5 6 6 7 7 7 6 5 5 6 6 7 8 8 7 6 6
3 1 1 1 2 3 4 2 0 2 2 1 3 3 5 3 4 7 5 2 2 5 6 8 9 9 8 7 7 6 4 4 3 3 4 4 4 4 4 3 3 3 2 2 2 5 5 3 3 3 2 3 3 3 4 4 3 3 4 4 5 5 5 5 5 5 5 6 5 7 7 8 8 7 6 6 6 6 7 7 7 8 8 8 7 6 8
2 1 1 1 3 4 4 3 2 2 3 2 1 2 3 5 1 4 2 5 1 2 1 7 9 9 8 8 8 7 6 4 4 4 4 4 4 4 4 4 3 3 1 2 5 4 3 3 3 2 3 2 2 2 4 4 5 6 6 5 5 6 6 7 7 6 7 7 7 6 6 6 6 7 8 8 7 8 8 7 7 7 7 8 7 7 7
3 1 0 1 2 2 2 3 3 3 2 3 4 4 4 4 7 8 3 3 4 0 6 2 7 9 8 8 8 7 6 5 4 5 5 5 5 4 4 4 2 1 1 2 4 3 3 2 7 8 4 3 2 3 3 2 4 2 3 5 6 6 7 8 7 7 7 7 7 7 6 8 9 8 7 7 7 7 8 8 8 7 7 7 7 7 7
4 3 2 2 1 1 2 2 3 3 3 2 3 3 3 4 5 5 6 5 5 7 8 6 4 8 8 7 6 6 5 4 5 5 6 5 4 4 3 3 1 1 1 4 2 2 4 4 7 9 5 4 5 5 5 11 4 3 3 4 3 5 6 6 6 6 6 6 6 6 8 7 5 6 7 7 7 7 8 7 7 7 7 7 7 7 7
4 5 4 3 2 3 2 1 1 3 3 3 3 2 3 3 3 5 6 8 9 8 7 8 7 7 7 7 6 6 6 6 6 6 5 4 4 4 3 2 1 3 4 3 0 3 2 4 7 5 6 5 4 3 6 11 11 6 5 5 5 4 5 6 7 7 7 5 6 6 5 5 6 6 7 7 7 7 7 7 7 7 6 7 7 8 7
3 3 4 3 4 3 3 3 2 1 2 3 2 3 3 3 4 7 8 8 8 9 8 7 6 8 8 9 7 6 6 7 7 7 6 5 4 4 2 3 5 5 5 2 3 3 3 2 2 6 4 3 3 2 5 8 11 5 5 5 6 5 5 6 7 7 7 6 5 5 5 5 5 7 7 7 8 8 7 8 8 7 7 6 7 7 7
2 3 3 3 4 4 4 3 3 3 2 4 3 3 3 3 4 4 6 7 7 7 6 5 7 9 9 9 8 7 6 7 6 7 6 6 5 4 2 4 6 5 4 6 2 1 1 5 7 5 4 2 1 1 4 7 9 5 5 5 5 4 5 6 6 5 5 4 5 7 5 6 6 6 6 7 8 8 7 7 7 7 6 6 6 6 7
2 2 3 3 4 4 4 4 3 3 3 3 3 3 2 2 3 4 6 7 7 8 6 4 6 7 9 9 9 8 7 7 7 6 6 6 5 4 4 6 4 5 4 4 3 1 2 6 4 5 3 3 2 4 3 7 6 5 5 4 4 5 6 6 6 6 5 6 6 5 5 5 7 7 6 7 7 7 7 7 7 6 6 6 6 6 6
6 6 7 6 4 4 3 4 4 5 4 3 3 2 1 3 4 7 6 6 5 6 5 4 7 7 9 9 9 9 8 8 7 7 7 7 5 5 3 6 6 5 6 5 4 1 1 5 4 5 3 2 1 6 8 4 5 4 3 3 4 5 5 6 6 6 6 6 7 6 6 6 6 6 7 7 7 7 7 7 7 6 6 6 6 6 6
6 6 6 8 6 3 2 3 3 4 5 3 2 2 3 3 4 4 4 5 7 7 8 7 8 9 8 9 9 10 8 8 7 7 7 6 6 5 4 6 6 5 9 4 2 1 6 6 5 3 3 2 2 7 8 4 3 4 3 4 6 6 5 5 5 6 6 6 6 6 7 7 6 6 7 6 7 7 7 7 6 6 6 5 5 5 5
7 5 4 6 7 6 4 3 4 4 4 3 3 3 3 3 3 4 5 5 6 7 9 8 8 8 9 9 8 8 8 8 7 7 7 6 5 4 5 6 6 6 8 3 1 5 6 5 5 3 4 5 6 8 3 2 2 3 3 4 5 5 6 6 6 5 6 6 5 5 6 7 7 7 7 8 7 7 7 6 6 6 5 4 4 5 5
5 4 5 6 7 6 6 5 3 3 3 4 4 3 4 3 3 3 4 5 6 6 7 7 7 5 3 3 6 7 7 7 7 7 7 6 6 4 3 6 8 5 4 5 2 6 5 5 5 6 3 5 6 7 2 1 2 3 4 4 4 5 5 5 5 6 6 7 7 7 7 6 6 7 7 8 9 8 7 6 5 5 4 4 4 4 4
5 5 5 7 6 5 5 5 4 3 3 4 4 3 2 2 3 3 2 4 5 6 8 10 10 9 5 3 1 3 5 6 6 6 5 5 7 6 5 6 5 6 7 6 3 7 5 9 7 5 3 3 5 1 1 1 1 1 1 1 2 3 3 4 5 5 6 6 7 6 6 5 5 5 6 6 7 7 8 8 6 4 3 4 4 4 4
7 6 6 5 5 6 7 6 4 5 5 5 5 5 4 2 1 3 3 3 6 6 9 10 12 9 5 4 6 6 6 6 5 5 6 6 8 7 7 10 9 7 5 2 3 7 5 5 6 6 3 3 4 0 0 0 1 1 1 2 3 3 3 4 3 4 5 6 7 7 8 8 7 6 8 8 8 8 7 7 5 4 3 4 4 5 5
5 7 7 6 6 6 6 5 5 4 3 3 2 3 3 2 1 3 5 6 7 6 7 8 10 7 6 6 4 5 6 6 6 4 5 6 5 5 6 5 5 7 5 3 7 8 10 11 9 6 3 2 1 1 0 0 1 1 1 1 1 2 2 2 3 4 5 6 6 4 4 4 5 6 6 6 6 6 6 6 5 4 4 4 4 4 4
4 6 6 6 5 7 6 5 4 4 2 2 2 2 1 1 5 5 5 6 8 8 5 3 8 6 4 5 4 5 6 4 3 5 4 5 5 6 6 7 10 8 3 4 6 4 9 12 10 8 4 1 2 2 1 0 0 0 0 0 0 1 2 2 2 3 4 4 4 5 4 5 5 5 5 6 5 5 6 6 5 5 5 5 4 5 5
3 4 4 5 5 4 5 5 5 4 4 4 4 1 1 2 3 4 5 6 7 7 5 4 6 6 5 5 5 5 5 5 5 5 4 3 5 6 6 6 5 8 7 3 5 6 10 13 14 10 4 2 1 1 1 1 0 1 2 1 1 0 1 2 5 6 4 4 4 4 5 4 4 6 6 5 5 5 4 5 5 7 10 6 5 5 5
3 3 4 4 4 4 5 4 5 6 4 3 3 2 1 2 3 2 4 7 5 7 5 4 4 4 5 5 5 6 5 5 4 4 3 4 2 4 8 6 5 2 2 3 3 1 0 1 2 1 1 1 0 1 1 0 1 2 2 0 0 0 1 2 2 2 2 3 3 3 3 3 3 3 3 4 4 4 4 4 4 4 4 4 4 5 5
3 2 1 3 4 4 4 4 3 2 2 2 4 4 5 4 6 6 7 10 6 2 2 5 6 4 3 4 7 4 5 6 4 3 3 3 3 3 4 5 4 4 3 3 3 3 2 1 1 2 2 2 2 1 1 3 1 2 1 0 1 1 0 0 1 2 2 3 2 2 2 3 2 2 3 4 4 4 5 5 4 4 4 4 4 4 4
Wind_Direction
240 273 321 309 317 30 7 337 318 332 48 76 23 17 150 142 135 151 160 152 138 147 137 135 124 127 124 127 124 120 125 129 134 125 115 112 107 99 82 62 51 54 76 90 82 70 63 67 66 64 56 53 45 36 47 50 46 21 327 32 74 75 62 33 18 25 40 60 58 64 87 90 89 83 84 72 47 16 37 32 359 320 240 195 193 193 187
0 298 264 331 347 16 353 352 28 38 25 19 27 8 55 103 116 130 136 137 127 123 118 121 127 127 116 110 111 108 106 110 107 96 88 87 83 82 81 71 54 48 49 78 82 72 62 60 69 77 82 80 75 65 46 49 49 35 13 25 67 81 79 69 29 13 48 54 66 82 88 107 120 130 126 125 113 108 38 23 11 18 7 331 236 198 192
348 322 37 337 10 325 328 326 355 39 27 331 2 38 109 106 114 120 120 110 103 104 117 112 109 107 104 104 100 102 101 93 90 93 93 87 79 71 67 70 64 43 36 45 76 72 64 67 56 46 81 120 126 115 110 83 60 52 38 36 45 60 66 53 39 30 46 55 57 77 99 103 85 65 166 180 144 143 172 181 156 310 336 341 335 269 208
328 311 325 301 261 269 308 343 316 42 70 329 333 69 118 112 125 120 113 116 125 119 107 105 112 110 110 107 107 105 107 99 92 83 83 87 88 79 65 51 46 46 36 31 45 76 76 54 47 32 35 66 109 108 98 94 95 88 69 53 53 59 69 71 27 13 27 47 57 59 49 27 60 114 134 307 287 228 172 177 187 175 204 250 286 309 258
255 275 283 282 247 293 304 258 252 284 347 5 358 340 127 133 131 127 134 137 130 130 126 123 120 114 102 90 86 87 91 95 96 92 85 83 83 87 77 61 49 35 24 15 22 48 58 54 45 29 26 29 45 74 74 73 71 65 62 60 65 62 61 68 57 4 354 48 60 55 49 49 42 32 358 351 308 325 311 33 73 258 214 206 233 264 301
293 307 313 322 287 218 234 39 21 341 260 163 275 82 114 133 123 127 135 135 136 131 131 128 129 114 110 110 100 100 106 108 105 103 101 96 93 83 78 73 59 33 16 9 10 50 57 52 48 36 23 30 32 71 88 79 69 58 52 49 55 63 61 58 53 31 11 26 47 49 49 51 58 52 28 359 336 10 321 329 291 208 223 225 219 233 244
302 328 341 334 253 215 33 30 22 353 285 108 71 93 103 114 111 113 111 121 127 126 116 112 109 105 106 106 111 108 111 112 113 113 106 101 102 99 91 77 56 31 8 4 10 46 43 35 45 43 32 29 24 31 67 77 68 56 47 43 40 46 62 72 68 43 39 42 42 29 25 35 37 60 51 8 352 355 336 280 262 281 294 250 281 285 264
333 345 74 12 205 297 46 20 6 359 47 80 87 68 89 105 122 125 130 132 117 97 111 113 107 111 111 105 113 123 128 117 117 109 104 96 95 105 104 95 72 31 1 359 31 60 47 27 21 53 54 40 31 25 38 66 64 52 44 42 37 32 38 42 49 131 96 66 49 46 39 34 38 27 24 21 348 339 315 297 281 260 262 243 231 228 237
187 207 225 215 357 334 57 43 9 11 68 71 96 122 103 121 130 131 131 128 115 110 114 120 120 115 107 89 66 66 47 29 107 102 102 104 99 105 106 101 95 48 2 11 55 63 44 27 25 34 54 51 43 29 29 55 59 52 44 37 28 18 10 2 6 15 55 57 55 43 45 39 36 25 11 357 357 340 321 316 304 289 280 270 238 241 252
202 253 310 33 46 234 232 175 152 138 105 127 119 101 105 138 138 137 130 135 141 141 148 140 126 124 110 115 144 126 100 94 98 93 90 88 88 87 87 83 83 64 24 26 48 58 42 34 42 42 37 40 38 36 32 47 59 57 49 40 22 11 358 350 350 1 27 26 48 49 20 29 40 37 16 21 15 3 352 336 322 323 318 305 288 261 251
335 223 222 247 199 247 196 180 91 59 46 102 107 81 84 208 148 154 149 145 131 143 147 138 139 138 144 161 180 163 125 95 81 74 68 64 74 80 70 67 71 55 43 36 53 54 39 37 42 41 35 34 30 23 22 30 58 58 54 45 30 10 352 344 349 354 6 13 8 82 88 60 32 34 17 18 16 4 342 334 319 310 306 306 304 295 271
254 277 220 245 2 211 242 116 90 86 87 89 77 96 211 197 149 156 151 129 134 131 121 125 131 150 159 173 175 153 126 105 91 84 76 62 54 62 64 48 53 60 45 36 43 45 40 37 37 37 27 27 27 23 15 18 54 62 61 51 35 3 349 343 352 353 352 354 345 8 146 143 126 79 39 16 349 340 328 323 312 311 313 307 299 292 291
253 244 268 330 7 304 86 91 88 80 61 69 102 183 212 171 156 151 147 126 128 138 152 159 112 106 120 98 110 119 93 97 95 97 99 88 74 61 56 55 42 43 44 43 42 39 37 35 29 31 25 29 27 17 11 25 21 33 86 75 62 22 353 350 353 347 340 341 335 338 162 181 173 176 171 180 194 211 259 279 273 284 297 309 312 310 308
236 225 236 248 195 271 98 46 50 36 70 95 192 229 268 132 77 66 69 67 132 115 113 107 105 112 110 109 100 96 96 91 87 86 76 69 62 53 59 56 46 39 38 38 32 32 34 30 22 19 21 32 24 18 20 22 4 348 12 22 81 51 32 0 345 338 334 330 335 336 335 334 194 234 209 194 195 201 211 230 256 273 283 288 290 296 300
277 311 289 83 199 258 145 103 42 14 105 213 297 330 24 82 108 112 106 101 104 111 113 110 114 112 87 73 79 81 77 79 81 77 76 72 65 51 45 44 32 27 35 26 27 29 27 26 21 24 22 22 11 9 10 12 342 346 347 336 37 101 65 29 336 331 327 333 330 328 324 345 356 324 306 267 227 211 218 233 257 279 296 303 308 312 317
260 185 219 198 272 358 19 94 135 11 112 180 52 67 72 68 81 88 98 88 93 87 92 96 91 87 87 82 77 71 73 81 82 78 73 68 60 54 55 52 34 20 17 8 12 13 15 13 22 27 37 18 4 349 5 336 332 336 331 339 321 163 103 74 345 341 330 327 324 312 326 347 337 323 315 316 305 264 238 245 265 300 305 335 349 354 344
68 230 262 253 32 84 73 85 93 78 52 45 73 82 91 92 81 82 93 98 89 89 91 92 100 103 101 105 98 91 86 80 75 73 70 67 65 71 66 53 36 28 17 2 355 6 8 12 10 4 12 16 356 357 342 334 343 343 346 346 347 331 169 133 62 6 323 318 317 323 345 336 329 333 344 347 344 338 333 337 347 348 331 336 334 330 338
209 355 33 90 108 87 78 74 76 77 55 45 43 64 69 79 110 109 107 108 101 92 100 103 79 93 110 106 89 87 90 90 81 81 78 69 65 62 64 66 41 31 360 358 13 26 8 8 12 10 6 4 354 349 331 345 346 340 353 347 341 330 325 113 73 17 321 322 319 348 350 343 346 350 346 341 349 359 24 11 356 338 332 333 327 319 315
73 226 279 298 136 119 114 98 82 72 61 55 62 69 68 77 88 92 94 100 97 94 82 92 107 103 99 89 88 90 89 87 87 85 88 85 77 68 61 57 54 7 292 21 36 33 9 11 15 15 3 355 347 339 339 330 319 338 337 328 325 329 322 325 40 47 349 310 332 6 6 353 352 348 344 355 3 4 358 355 346 333 332 329 322 320 314
347 221 244 355 318 103 124 127 130 109 76 61 61 78 84 78 75 88 97 93 93 95 79 70 85 85 83 101 109 104 98 98 100 100 95 92 85 96 95 75 1 313 319 79 51 32 31 27 17 12 0 346 333 325 317 312 310 319 313 316 315 311 312 297 230 43 302 333 17 14 4 356 350 344 343 347 356 350 339 328 325 321 319 319 315 311 312
291 23 17 360 358 338 175 148 133 132 130 105 92 86 77 82 77 61 55 89 106 94 117 107 93 97 95 95 94 93 103 104 106 108 106 107 117 125 139 186 115 72 44 48 36 38 45 24 23 13 357 339 331 319 302 296 305 307 299 306 308 299 298 289 219 235 54 51 33 22 5 357 340 327 323 331 329 319 309 303 301 303 303 300 296 298 299
18 239 300 19 61 293 302 15 104 118 118 113 116 113 113 110 103 90 75 55 71 87 100 89 89 102 111 108 100 101 101 119 127 111 103 108 102 78 87 56 23 76 71 63 54 45 41 31 24 12 349 329 340 348 353 337 317 308 312 323 327 328 308 327 13 40 43 44 34 18 9 339 324 319 316 310 291 292 304 311 311 308 299 268 280 295 303
194 163 53 34 329 227 239 303 142 139 131 133 140 144 142 137 133 133 119 104 96 109 107 96 94 110 123 130 131 132 158 157 129 120 117 107 115 100 44 3 77 67 67 62 51 44 37 30 24 12 351 346 359 360 8 10 6 4 3 0 350 332 7 24 22 42 24 22 350 336 297 294 305 310 309 311 302 296 289 297 312 318 315 295 283 278 258
317 41 144 166 235 282 271 305 341 148 155 154 162 159 156 143 142 143 134 137 135 115 129 142 161 162 157 152 151 162 152 123 103 109 121 119 107 103 169 166 87 70 68 73 64 45 30 37 17 24 3 14 2 3 7 17 2 1 3 9 12 5 17 5 8 5 11 357 334 322 310 315 330 325 328 323 317 304 298 314 320 319 311 302 295 288 283
212 246 266 262 206 305 306 321 344 347 162 144 141 144 137 134 132 133 147 154 142 140 137 169 185 140 146 184 153 139 126 128 135 120 101 93 97 148 112 92 83 77 62 63 59 55 55 45 17 21 15 19 8 10 10 11 2 358 358 358 357 354 6 352 354 350 351 346 338 337 1 5 346 343 334 329 327 324 314 288 295 300 301 301 301 293 281
280 226 242 265 296 280 296 324 326 341 354 49 137 137 143 139 150 147 157 147 158 160 154 134 126 100 90 82 90 98 84 90 95 94 107 109 92 75 78 77 77 74 87 79 61 61 55 55 33 22 24 22 12 10 9 5 0 353 350 345 347 337 349 353 340 336 334 344 13 22 359 353 346 338 328 329 323 321 319 320 320 295 281 285 286 289 292
288 277 230 249 271 277 19 114 254 321 342 339 88 142 157 165 149 108 99 74 42 126 137 134 135 113 97 90 84 78 98 102 92 104 92 75 82 85 76 82 76 64 50 56 54 38 46 35 38 36 30 30 10 9 5 4 358 350 348 346 342 346 352 359 350 340 344 356 6 354 338 330 328 324 320 316 315 310 308 310 310 312 315 307 297 282 266
305 337 11 240 243 231 147 142 219 21 312 308 321 67 138 140 123 126 119 115 66 60 92 106 115 115 106 101 89 82 46 47 163 140 110 108 93 71 80 78 69 68 71 73 64 42 41 46 34 25 45 36 20 20 6 359 347 342 343 341 340 334 344 8 6 360 352 350 332 319 312 311 315 310 304 300 295 293 293 294 300 305 310 308 306 307 297
355 346 332 325 311 310 313 319 207 231 245 276 291 292 140 154 150 146 139 139 126 109 101 103 115 123 125 122 106 84 50 16 50 85 108 101 88 88 72 77 74 70 70 66 72 61 55 41 32 46 54 25 22 13 17 357 332 332 329 330 332 341 10 16 8 352 347 339 334 327 324 316 304 295 287 280 277 279 287 297 303 303 302 304 312 320 316
126 117 91 12 339 329 301 300 268 227 212 241 236 236 165 161 153 162 153 153 140 138 143 130 117 110 114 113 113 128 154 228 97 107 85 86 98 108 111 90 66 67 68 66 61 61 50 46 42 63 47 27 25 355 358 347 322 323 323 324 331 354 4 12 359 350 352 344 333 334 332 327 321 310 303 297 290 293 294 296 295 301 306 316 325 321 330
321 351 74 85 68 25 341 332 317 299 273 256 240 203 223 174 163 155 161 163 157 153 154 150 150 139 129 130 141 145 165 148 115 95 98 114 121 110 104 96 93 80 82 82 54 53 49 61 68 56 43 22 14 354 343 345 352 345 344 344 349 355 354 357 356 350 339 328 318 318 316 314 309 303 297 295 296 292 293 301 309 309 309 310 311 317 327
1 31 46 47 50 20 217 72 334 327 335 313 266 227 196 171 178 170 172 176 182 162 160 155 148 142 140 131 134 143 137 115 104 126 139 141 148 130 115 114 110 104 117 100 83 51 47 80 70 57 27 13 357 336 335 11 4 358 344 353 348 348 342 347 342 339 329 320 314 316 312 312 309 311 313 305 299 300 305 310 308 310 312 311 313 317 325
3 15 32 12 348 354 8 145 209 252 302 359 356 321 314 356 14 261 179 181 163 170 158 155 148 140 140 139 134 124 127 131 144 149 176 177 136 111 108 109 119 128 126 123 116 110 95 89 93 70 32 356 345 328 343 9 20 356 355 360 350 341 334 326 316 315 312 310 310 308 319 319 316 310 305 306 308 310 311 307 307 305 301 302 301 302 312
33 47 254 249 233 261 281 298 256 272 275 209 162 205 268 286 192 209 219 245 195 173 163 155 150 142 142 144 136 132 138 146 168 193 190 141 115 103 93 88 88 76 101 115 116 95 92 103 103 95 67 354 332 339 5 0 352 18 25 13 348 332 326 322 320 317 313 314 314 320 317 312 306 302 307 316 317 313 306 303 300 298 296 297 297 298 301
26 64 25 204 212 248 257 257 284 223 216 239 212 185 145 120 263 294 166 163 204 4 19 149 146 147 147 143 141 147 156 173 189 187 151 129 121 109 90 68 61 69 41 70 87 89 91 109 137 117 71 3 343 27 23 351 23 24 7 355 349 336 332 326 326 325 323 321 318 310 303 303 301 310 310 310 309 309 305 299 295 297 302 305 306 306 305
352 349 293 272 276 293 298 278 252 270 253 212 223 200 170 169 180 194 158 139 137 255 312 292 154 146 148 149 150 159 164 178 172 133 109 106 110 112 107 107 88 79 55 80 85 80 76 19 12 5 31 355 350 39 2 6 82 42 15 2 342 339 329 323 320 312 306 302 297 297 296 305 311 312 312 310 309 305 304 302 301 299 301 304 307 311 314
336 327 305 276 263 266 300 316 322 324 313 281 232 210 196 193 181 143 119 118 145 187 228 236 191 155 155 155 152 149 157 155 136 126 130 124 117 110 115 120 135 201 187 97 36 26 61 28 26 11 14 22 24 24 12 1 10 21 15 352 334 333 324 310 299 294 292 287 293 306 312 312 308 307 310 307 302 301 302 302 306 308 308 309 312 310 309
347 347 339 335 343 317 309 328 308 278 272 288 293 256 234 200 169 171 176 176 179 190 227 239 198 162 151 148 149 153 150 136 124 121 121 134 130 121 110 93 96 83 80 119 95 60 62 34 3 22 62 51 41 16 355 356 352 2 354 330 317 304 298 296 300 298 303 306 313 310 307 307 308 307 305 303 300 304 303 303 303 301 301 303 305 307 309
346 333 317 327 329 309 313 296 277 217 256 259 259 280 279 251 199 193 192 194 186 183 201 227 196 161 154 153 154 158 152 149 147 146 147 125 112 104 114 139 120 111 134 133 84 75 47 360 48 80 69 61 28 357 352 354 351 349 324 305 299 285 294 296 301 301 305 310 308 303 307 310 311 313 310 308 305 301 300 302 303 302 303 307 314 317 317
320 327 318 328 309 309 301 285 287 288 225 196 201 223 226 223 244 227 208 199 194 184 182 198 202 172 162 156 157 161 159 149 145 133 123 122 115 119 128 88 108 111 118 105 102 140 359 43 94 120 106 70 24 19 17 344 335 317 305 293 288 299 304 303 297 299 301 304 305 312 312 314 310 308 307 305 305 304 304 303 302 301 302 305 303 301 299
326 318 322 305 288 288 288 297 286 272 284 288 247 219 195 200 188 215 228 219 200 182 163 171 220 180 162 157 157 152 146 134 133 132 132 122 129 155 150 141 146 132 138 148 176 116 49 104 132 107 81 59 3 7 18 328 317 290 289 297 319 317 311 306 304 313 316 319 318 316 308 305 305 305 304 302 302 304 305 300 296 296 300 304 303 303 304
0 354 334 319 306 317 323 335 330 319 298 293 313 313 243 197 201 211 220 208 178 150 152 176 220 194 164 155 146 145 143 139 138 140 135 139 146 156 156 149 159 160 157 132 95 90 70 101 85 83 90 52 4 339 333 327 304 299 314 325 314 313 310 316 317 322 325 325 323 319 319 315 309 305 306 303 304 301 301 301 302 304 307 305 304 308 308
349 340 332 322 312 303 299 300 293 293 296 299 303 298 285 238 217 232 222 192 186 160 155 161 217 197 159 154 149 149 148 148 144 137 135 147 150 159 154 151 156 144 130 118 147 128 95 113 111 115 77 42 354 341 341 314 302 328 321 307 316 318 320 331 337 331 327 327 326 326 323 318 312 311 309 305 300 298 295 298 300 301 301 305 310 312 312
329 320 322 317 318 318 304 280 275 283 295 309 322 294 260 242 240 218 213 195 186 174 164 152 160 198 188 168 158 153 153 151 148 144 142 153 150 142 141 130 134 146 133 123 140 100 112 115 122 92 62 18 5 351 336 301 334 323 318 343 351 348 338 331 326 323 319 319 319 319 317 315 318 316 313 311 305 301 298 299 301 301 299 304 311 313 317
322 316 304 303 301 302 302 295 292 297 292 290 287 301 309 289 255 246 202 181 174 163 155 139 146 142 158 194 158 147 148 151 150 149 146 157 137 161 154 136 140 135 133 145 138 110 124 124 119 97 70 31 5 10 356 347 10 351 358 359 356 339 328 324 328 331 328 323 317 313 311 315 316 316 317 316 313 311 306 300 299 307 314 315 316 321 332
319 310 303 306 304 300 294 297 295 298 287 277 272 279 263 280 239 224 236 181 161 147 146 140 129 144 156 143 199 152 134 131 125 135 135 140 143 171 177 162 126 140 144 152 126 121 133 133 125 125 105 44 27 27 314 11 2 347 342 12 335 319 323 332 331 327 323 321 316 310 310 309 311 314 313 303 307 312 310 312 315 320 321 318 319 325 337
339 326 316 311 313 307 305 292 288 282 278 273 260 263 264 211 188 207 217 170 143 132 132 140 144 142 141 171 183 161 137 125 124 124 117 114 137 155 165 148 138 150 137 149 112 135 147 140 138 148 150 59 38 49 126 343 315 8 48 15 335 332 339 330 324 322 322 312 310 320 328 326 328 326 319 318 318 315 312 311 312 315 329 337 343 343 338
337 324 326 323 320 314 309 303 301 287 276 276 277 252 263 277 123 167 183 153 137 137 115 113 123 140 177 201 173 127 126 132 133 149 148 144 150 138 135 119 143 153 164 165 135 142 146 147 161 166 154 63 131 159 143 67 5 90 90 12 327 317 334 324 331 322 313 310 319 321 314 315 319 315 317 320 323 324 325 332 331 337 343 344 338 334 338
342 334 333 337 340 332 333 328 319 310 315 279 239 234 260 239 122 157 153 145 138 130 124 97 122 139 181 177 134 100 89 80 120 154 160 140 150 137 131 151 156 158 178 138 150 154 167 172 178 181 187 153 161 157 144 136 87 338 10 167 123 342 340 319 298 298 291 305 322 329 331 323 325 314 321 332 326 332 342 339 351 357 9 1 1 359 355
350 353 351 341 340 333 334 340 334 302 286 309 313 251 128 163 122 119 134 130 124 126 125 129 136 162 175 143 120 109 112 105 93 100 102 102 103 129 143 133 150 168 176 159 159 170 196 190 191 192 173 156 171 137 137 145 258 279 257 257 84 120 286 317 313 320 326 331 330 329 329 323 316 328 338 330 326 341 340 338 344 356 9 10 0 6 7
337 11 355 343 344 334 337 337 343 341 328 294 292 350 85 110 98 125 140 120 112 131 149 152 124 139 130 124 106 117 117 109 115 120 89 108 123 156 156 162 177 160 130 138 136 140 130 164 146 133 124 125 122 129 144 223 232 269 303 336 101 59 319 327 321 321 320 329 334 321 319 319 316 324 317 323 332 347 357 355 360 357 355 6 1 0 4
338 33 52 355 356 355 334 357 348 303 334 25 64 41 49 82 105 109 92 84 59 43 93 146 113 80 58 103 119 127 129 128 117 116 111 90 80 76 113 127 138 163 168 166 172 181 188 183 168 159 169 164 156 149 327 307 288 272 281 301 154 192 267 322 307 323 323 329 331 318 318 309 311 325 325 325 337 348 358 1 8 4 360 7 5 3 357